EA6FG Weather Reports


time (UTC)temp
C
wind
direction
speed
KPH
gust
KPH
rain 1hr
cm
rain 24hr
cm
rain mn
cm
humidity
%
barometer
mb
20260506034030 11 0.0 3.2 0.00 0.00 0.00 93 1009.5
20260506033047 11 0.0 0.0 0.00 0.00 0.00 92 1009.4
20260506032104 12 0.0 0.0 0.00 0.00 0.00 92 1009.4
20260506031022 12 270 0.0 3.2 0.00 0.00 0.00 92 1009.3
20260506030018 12 270 0.0 3.2 0.00 0.00 0.00 92 1009.2
20260506025015 12 0.0 0.0 0.00 0.00 0.00 91 1009.3
20260506024112 12 0.0 0.0 0.00 0.00 0.00 91 1009.3
20260506023131 12 259 0.0 3.2 0.00 0.00 0.00 92 1009.4
20260506022127 13 248 0.0 3.2 0.00 0.00 0.00 92 1009.3
20260506021103 13 0.0 0.0 0.00 0.00 0.00 92 1009.3
20260506020101 13 0.0 3.2 0.00 0.00 0.00 92 1009.3
20260506015057 13 0.0 0.0 0.00 0.00 0.00 92 1009.4
20260506014054 13 249 0.0 3.2 0.00 0.00 0.00 91 1009.4
20260506013051 13 0.0 0.0 0.00 0.00 0.00 91 1009.4
20260506012049 13 270 0.0 3.2 0.00 0.00 0.00 90 1009.4
20260506011046 14 0.0 0.0 0.00 0.00 0.00 90 1009.4
20260506010043 15 0.0 3.2 0.00 0.00 0.00 89 1009.5
20260506005039 15 0.0 3.2 0.00 0.00 0.00 89 1009.6
20260506004057 15 270 0.0 3.2 0.00 0.00 0.00 91 1009.7
20260506003054 15 270 0.0 3.2 0.00 0.00 0.00 91 1009.9
20260506002030 15 0.0 0.0 0.00 0.00 0.00 91 1010.0
20260506001027 15 0.0 3.2 0.00 0.00 0.00 89 1009.9
20260506000024 15 270 0.0 3.2 0.00 0.00 0.00 89 1010.0
20260505235022 15 270 0.0 3.2 0.00 0.00 0.00 89 1010.3
20260505234020 15 0.0 3.2 0.00 0.00 0.00 90 1010.2
20260505233016 16 270 0.0 3.2 0.00 0.00 0.00 91 1010.2
20260505232113 16 270 0.0 3.2 0.00 0.00 0.00 91 1010.0
20260505231110 15 270 1.6 3.2 0.00 0.00 0.00 92 1010.1
20260505230107 15 0.0 0.0 0.00 0.00 0.00 93 1010.0
20260505225124 15 203 0.0 3.2 0.00 0.00 0.00 93 1010.0
20260505224101 15 203 0.0 3.2 0.00 0.00 0.00 94 1009.9
20260505223058 15 203 1.6 6.4 0.00 0.00 0.00 95 1010.0
20260505222055 15 0.0 0.0 0.00 0.00 0.00 95 1010.1
20260505221052 16 0.0 0.0 0.00 0.00 0.00 95 1010.4
20260505220109 16 0.0 3.2 0.00 0.00 0.00 95 1010.5
20260505215046 16 203 0.0 3.2 0.00 0.00 0.00 95 1010.5
20260505214043 16 0.0 3.2 0.00 0.00 0.00 95 1010.5
20260505213040 16 0.0 3.2 0.00 0.00 0.00 95 1010.5
20260505212037 16 0.0 3.2 0.00 0.00 0.00 94 1010.7
20260505211034 16 203 0.0 3.2 0.00 0.00 0.00 94 1010.6
20260505210111 17 0.0 3.2 0.00 0.00 0.00 94 1010.6
20260505205028 17 0.0 0.0 0.00 0.00 0.00 93 1010.5
20260505204025 17 0.0 3.2 0.00 0.00 0.00 93 1010.5
20260505203042 17 203 1.6 3.2 0.00 0.00 0.00 92 1010.3
20260505202019 17 203 0.0 3.2 0.00 0.00 0.00 92 1010.3
20260505201016 17 203 0.0 3.2 0.00 0.00 0.00 92 1009.9
20260505200113 17 180 0.0 3.2 0.00 0.00 0.00 92 1009.8
20260505195110 17 180 0.0 3.2 0.00 0.00 0.00 92 1009.7
20260505194107 17 193 1.6 3.2 0.00 0.00 0.00 92 1009.6
20260505193105 17 199 3.2 6.4 0.00 0.00 0.00 91 1009.5
20260505192102 18 180 1.6 3.2 0.00 0.00 0.00 91 1009.3
20260505191058 18 180 1.6 3.2 0.00 0.00 0.00 90 1009.2
20260505190116 18 180 1.6 3.2 0.00 0.00 0.00 90 1009.1
20260505185052 18 180 1.6 6.4 0.00 0.00 0.00 89 1008.9
20260505184050 18 118 1.6 3.2 0.00 0.00 0.00 88 1008.9
20260505183047 18 180 0.0 3.2 0.00 0.00 0.00 87 1008.8
20260505182104 18 182 3.2 6.4 0.00 0.00 0.00 86 1008.8
20260505181040 19 171 3.2 6.4 0.00 0.00 0.00 84 1008.8
20260505180037 19 131 1.6 6.4 0.00 0.00 0.00 83 1008.7
20260505175055 19 175 1.6 6.4 0.00 0.00 0.00 83 1008.7
20260505174031 20 180 1.6 3.2 0.00 0.00 0.00 81 1008.6
20260505173028 20 154 1.6 6.4 0.00 0.00 0.00 79 1008.5
20260505172026 20 198 3.2 6.4 0.00 0.00 0.00 80 1008.7
20260505171023 20 147 4.8 11.3 0.00 0.00 0.00 80 1008.7
20260505170040 20 172 3.2 11.3 0.00 0.00 0.00 79 1008.6
20260505165037 20 193 6.4 11.3 0.00 0.00 0.00 79 1008.7
20260505164113 20 235 6.4 11.3 0.00 0.00 0.00 78 1008.8
20260505163110 20 205 6.4 11.3 0.00 0.00 0.00 78 1008.6
20260505162108 20 217 4.8 6.4 0.00 0.00 0.00 77 1008.8
20260505161105 20 186 4.8 11.3 0.00 0.00 0.00 77 1008.8
20260505160121 20 207 6.4 11.3 0.00 0.00 0.00 78 1008.7
20260505153052 20 223 4.8 11.3 0.00 0.00 0.00 76 1009.0
20260505152049 20 202 6.4 14.5 0.00 0.00 0.00 76 1009.0
20260505151046 20 225 6.4 17.7 0.00 0.00 0.00 77 1009.0
20260505130108 21 210 8.0 11.3 0.00 0.00 0.00 70 1009.7
20260505124101 21 209 6.4 14.5 0.00 0.00 0.00 71 1009.9
20260505123058 21 215 6.4 11.3 0.00 0.00 0.00 72 1010.1
20260505122116 22 215 4.8 11.3 0.00 0.00 0.00 69 1010.1
20260505121053 20 231 6.4 17.7 0.00 0.00 0.00 73 1010.1
20260505120049 21 217 6.4 14.5 0.00 0.00 0.00 69 1010.1
20260505115046 21 229 6.4 11.3 0.00 0.00 0.00 69 1010.2
20260505114043 21 208 6.4 14.5 0.00 0.00 0.00 69 1010.2
20260505113101 21 189 6.4 17.7 0.00 0.00 0.00 71 1010.3
20260505112038 21 185 6.4 12.9 0.00 0.00 0.00 71 1010.5
20260505111035 21 202 8.0 12.9 0.00 0.00 0.00 70 1010.5
20260505102020 21 201 6.4 12.9 0.00 0.00 0.00 70 1010.6
20260505101017 21 183 6.4 14.5 0.00 0.00 0.00 71 1010.6
20260505100114 21 231 6.4 12.9 0.00 0.00 0.00 71 1010.6
20260505095132 20 150 4.8 9.7 0.00 0.00 0.00 72 1010.6
20260505094148 21 223 6.4 14.5 0.00 0.00 0.00 71 1010.6
20260505093126 20 159 6.4 11.3 0.00 0.00 0.00 71 1010.7
20260505092123 20 155 1.6 11.3 0.00 0.00 0.00 72 1010.6
20260505091059 20 165 4.8 11.3 0.00 0.00 0.00 72 1010.6
20260505090056 20 175 4.8 9.7 0.00 0.00 0.00 74 1010.6
20260505085053 19 203 3.2 6.4 0.00 0.00 0.00 77 1010.6
20260505084050 20 196 3.2 11.3 0.00 0.00 0.00 76 1010.7
20260505083047 20 160 1.6 6.4 0.00 0.00 0.00 77 1010.6
20260505082105 18 209 3.2 9.7 0.00 0.00 0.00 82 1010.7
20260505081041 18 203 1.6 3.2 0.00 0.00 0.00 85 1010.7
20260505080038 18 203 0.0 3.2 0.00 0.00 0.00 84 1010.8
20260505075056 18 193 3.2 6.4 0.00 0.00 0.00 84 1010.7
20260505074032 18 0.0 3.2 0.00 0.00 0.00 85 1010.7
20260505073050 18 113 1.6 3.2 0.00 0.00 0.00 84 1010.7
20260505072026 18 113 0.0 3.2 0.00 0.00 0.00 84 1010.8
20260505071023 18 0.0 3.2 0.00 0.00 0.00 92 1010.7
20260505070021 16 0.0 3.2 0.00 0.00 0.00 96 1010.7
20260505065038 16 0.0 0.0 0.00 0.00 0.00 96 1010.8
20260505064115 16 0.0 0.0 0.00 0.00 0.00 97 1010.8
20260505063112 16 0.0 3.2 0.00 0.00 0.00 97 1010.7
20260505062109 15 0.0 3.2 0.00 0.00 0.00 98 1010.7
20260505061106 15 0.0 0.0 0.00 0.00 0.00 98 1010.7
20260505060103 15 0.0 0.0 0.00 0.00 0.00 98 1010.7
20260505055100 15 0.0 3.2 0.00 0.00 0.00 98 1010.7
20260505054057 15 0.0 0.0 0.00 0.00 0.00 98 1010.6
20260505053054 14 0.0 0.0 0.00 0.00 0.00 98 1010.7
20260505052111 14 0.0 0.0 0.00 0.00 0.00 98 1010.7
20260505051108 14 0.0 0.0 0.00 0.00 0.00 98 1010.5
20260505041051 14 0.0 3.2 0.00 0.00 0.00 98 1010.8
20260505040028 15 0.0 0.0 0.00 0.00 0.00 98 1010.8
20260505035024 15 0.0 0.0 0.00 0.00 0.00 98 1010.8